Redmond, OR

12:33 AM PDT on June 26, 2017 (GMT -0700)
Roberts Field Airport

Weather History for KRDM - May, 2013

Change the Weather History Date:

Thursday, May 23, 2013

  Actual Average Record
Temperature  
Mean Temperature 42 °F 53 °F  
Max Temperature 60 °F 70 °F 94 °F (2001)
Min Temperature 23 °F 37 °F 18 °F (1964)
Degree Days  
Heating Degree Days 23 12  
Month to date heating degree days 269 338  
Since 1 July heating degree days 6115 6409  
Cooling Degree Days 0 0  
Month to date cooling degree days 9 0  
Year to date cooling degree days 9 0  
Moisture  
Dew Point 27 °F    
Average Humidity 57    
Maximum Humidity 88    
Minimum Humidity 26    
Precipitation  
Precipitation 0.03 in 0.04 in 0.33 in (1987)
Month to date precipitation 0.16 0.73  
Year to date precipitation 1.01 3.74  
Sea Level Pressure  
Sea Level Pressure 29.97 in    
Wind  
Wind Speed 6 mph (WNW)    
Max Wind Speed 18 mph    
Max Gust Speed 23 mph    
Visibility 10 miles    
Events Rain    
T = Trace of Precipitation, MM = Missing Value Source: NWS Daily Summary

Daily Weather History Graph

Daily Weather History Graph

Search for Another Location

Airport or City:

Trip Planner

Search our weather history database for the weather conditions in past years. The results will help you decide how hot, cold, wet, or windy it might be!

Date:

Astronomy

May. 23, 2013 Rise Set
Actual Time 5:29 AM PDT 8:33 PM PDT
Civil Twilight 4:55 AM PDT 9:08 PM PDT
Nautical Twilight 4:10 AM PDT 9:52 PM PDT
Astronomical Twilight 3:17 AM PDT 10:46 PM PDT
Moon 7:09 PM PDT (5/23) 4:22 AM PDT (5/23)
Length of Visible Light 16h 13m
Length of Day
15h 03m
Waxing Gibbous, 97% of the Moon is Illuminated
May 23
Waxing Gibbous
May 24
Full
May 31
Last Quarter
Jun 8
New
Jun 16
First Quarter

Hourly Weather History & Observations

Time (PDT) Temp. Windchill Dew Point Humidity Pressure Visibility Wind Dir Wind Speed Gust Speed Precip Events Conditions
12:56 AM 32.0 °F 27.5 °F 26.1 °F 79% 29.97 in 10.0 mi NE 4.6 mph - N/A   Overcast
1:56 AM 28.9 °F 25.2 °F 25.0 °F 85% 29.98 in 10.0 mi ENE 3.5 mph - N/A   Scattered Clouds
2:56 AM 30.0 °F 26.5 °F 25.0 °F 82% 29.98 in 10.0 mi NW 3.5 mph - N/A   Clear
3:56 AM 25.0 °F 20.7 °F 21.9 °F 88% 29.99 in 10.0 mi SSE 3.5 mph - N/A   Clear
4:56 AM 28.0 °F 24.2 °F 24.1 °F 85% 29.98 in 10.0 mi SSE 3.5 mph - N/A   Partly Cloudy
5:56 AM 26.1 °F - 23.0 °F 88% 30.01 in 10.0 mi Calm Calm - N/A   Clear
6:56 AM 30.9 °F - 26.1 °F 82% 30.01 in 10.0 mi Calm Calm - N/A   Clear
7:56 AM 42.1 °F 40.2 °F 27.0 °F 55% 29.97 in 10.0 mi ESE 3.5 mph - N/A   Clear
8:56 AM 45.0 °F - 26.1 °F 48% 29.98 in 10.0 mi Calm Calm - N/A   Clear
9:56 AM 50.0 °F - 25.0 °F 38% 29.97 in 10.0 mi SSW 4.6 mph - N/A   Clear
10:56 AM 48.9 °F - 24.1 °F 38% 29.96 in 10.0 mi Calm Calm - N/A   Partly Cloudy
11:56 AM 52.0 °F - 24.1 °F 34% 29.95 in 10.0 mi SW 6.9 mph - N/A   Partly Cloudy
12:56 PM 54.0 °F - 19.9 °F 26% 29.94 in 10.0 mi Calm Calm - N/A   Mostly Cloudy
1:56 PM 54.0 °F - 23.0 °F 30% 29.94 in 10.0 mi Calm Calm - N/A   Mostly Cloudy
2:56 PM 55.0 °F - 24.1 °F 30% 29.94 in 10.0 mi WNW 12.7 mph 17.3 mph N/A   Mostly Cloudy
3:56 PM 57.9 °F - 28.0 °F 32% 29.95 in 10.0 mi WNW 12.7 mph 21.9 mph N/A   Overcast
4:56 PM 57.0 °F - 28.0 °F 33% 29.94 in 10.0 mi NNW 13.8 mph - N/A   Mostly Cloudy
5:56 PM 54.0 °F - 28.0 °F 37% 29.96 in 10.0 mi NW 16.1 mph - N/A   Clear
6:56 PM 50.0 °F - 30.0 °F 46% 29.96 in 10.0 mi WNW 15.0 mph 20.7 mph N/A   Overcast
7:56 PM 48.0 °F - 30.0 °F 50% 29.97 in 10.0 mi NW 8.1 mph - N/A   Overcast
8:56 PM 46.9 °F - 30.9 °F 54% 29.98 in 10.0 mi NW 8.1 mph - N/A   Overcast
9:56 PM 45.0 °F 41.8 °F 35.1 °F 68% 30.00 in 9.0 mi West 5.8 mph - 0.00 in Rain Light Rain
10:56 PM 43.0 °F 38.8 °F 36.0 °F 76% 30.01 in 8.0 mi West 6.9 mph - 0.03 in Rain Light Rain
11:56 PM 39.9 °F - 36.0 °F 86% 29.99 in 10.0 mi Calm Calm - 0.00 in   Mostly Cloudy